Year,Month,Day,Hour,Minute,Value (Times are PST for temperature in C)
2016,09,29,00,00,9.60
2016,09,29,00,01,9.50
2016,09,29,00,02,9.50
2016,09,29,00,03,9.60
2016,09,29,00,04,9.60
2016,09,29,00,06,9.60
2016,09,29,00,07,9.60
2016,09,29,00,09,9.60
2016,09,29,00,11,9.60
2016,09,29,00,12,9.60
2016,09,29,00,13,9.60
2016,09,29,00,14,9.60
2016,09,29,00,15,9.60
2016,09,29,00,16,9.60
2016,09,29,00,17,9.60
2016,09,29,00,18,9.60
2016,09,29,00,19,9.60
2016,09,29,00,20,9.50
2016,09,29,00,21,9.50
2016,09,29,00,22,9.50
2016,09,29,00,23,9.50
2016,09,29,00,24,9.50
2016,09,29,00,25,9.50
2016,09,29,00,26,9.50
2016,09,29,00,27,9.50
2016,09,29,00,28,9.50
2016,09,29,00,29,9.50
2016,09,29,00,30,9.50
2016,09,29,00,31,9.40
2016,09,29,00,32,9.40
2016,09,29,00,33,9.40
2016,09,29,00,34,9.40
2016,09,29,00,35,9.40
2016,09,29,00,36,9.40
2016,09,29,00,37,9.40
2016,09,29,00,38,9.40
2016,09,29,00,39,9.40
2016,09,29,00,40,9.40
2016,09,29,00,41,9.40
2016,09,29,00,42,9.40
2016,09,29,00,43,9.40
2016,09,29,00,44,9.30
2016,09,29,00,45,9.30
2016,09,29,00,46,9.30
2016,09,29,00,47,9.30
2016,09,29,00,48,9.30
2016,09,29,00,49,9.30
2016,09,29,00,50,9.30
2016,09,29,00,51,9.30
2016,09,29,00,52,9.30
2016,09,29,00,53,9.20
2016,09,29,00,54,9.20
2016,09,29,00,55,9.20
2016,09,29,00,56,9.20
2016,09,29,00,57,9.20
2016,09,29,00,58,9.20
2016,09,29,00,59,9.20
2016,09,29,01,00,9.20
2016,09,29,01,01,9.20
2016,09,29,01,02,9.20
2016,09,29,01,03,9.30
2016,09,29,01,04,9.30
2016,09,29,01,05,9.30
2016,09,29,01,06,9.30
2016,09,29,01,07,9.30
2016,09,29,01,08,9.30
2016,09,29,01,09,9.30
2016,09,29,01,10,9.40
2016,09,29,01,11,9.40
2016,09,29,01,12,9.40
2016,09,29,01,13,9.40
2016,09,29,01,14,9.40
2016,09,29,01,16,9.30
2016,09,29,01,17,9.30
2016,09,29,01,18,9.30
2016,09,29,01,19,9.30
2016,09,29,01,21,9.30
2016,09,29,01,22,9.30
2016,09,29,01,23,9.30
2016,09,29,01,24,9.30
2016,09,29,01,26,9.30
2016,09,29,01,27,9.30
2016,09,29,01,28,9.20
2016,09,29,01,29,9.20
2016,09,29,01,31,9.30
2016,09,29,01,32,9.30
2016,09,29,01,33,9.40
2016,09,29,01,34,9.40
2016,09,29,01,36,9.40
2016,09,29,01,37,9.50
2016,09,29,01,38,9.50
2016,09,29,01,39,9.50
2016,09,29,01,41,9.40
2016,09,29,01,42,9.40
2016,09,29,01,43,9.40
2016,09,29,01,44,9.40
2016,09,29,01,46,9.40
2016,09,29,01,47,9.40
2016,09,29,01,48,9.50
2016,09,29,01,49,9.50
2016,09,29,01,51,9.50
2016,09,29,01,52,9.50
2016,09,29,01,53,9.50
2016,09,29,01,54,9.50
2016,09,29,01,56,9.50
2016,09,29,01,57,9.50
2016,09,29,01,58,9.40
2016,09,29,01,59,9.40
2016,09,29,02,01,9.40
2016,09,29,02,02,9.40
2016,09,29,02,03,9.40
2016,09,29,02,04,9.40
2016,09,29,02,06,9.40
2016,09,29,02,07,9.50
2016,09,29,02,08,9.50
2016,09,29,02,09,9.50
2016,09,29,02,11,9.60
2016,09,29,02,12,9.60
2016,09,29,02,13,9.60
2016,09,29,02,14,9.60
2016,09,29,02,16,9.60
2016,09,29,02,17,9.60
2016,09,29,02,18,9.60
2016,09,29,02,19,9.60
2016,09,29,02,21,9.70
2016,09,29,02,22,9.70
2016,09,29,02,23,9.70
2016,09,29,02,24,9.70
2016,09,29,02,25,9.70
2016,09,29,02,26,9.60
2016,09,29,02,27,9.60
2016,09,29,02,28,9.60
2016,09,29,02,29,9.70
2016,09,29,02,30,9.70
2016,09,29,02,31,9.70
2016,09,29,02,32,9.70
2016,09,29,02,33,9.70
2016,09,29,02,34,9.70
2016,09,29,02,36,9.70
2016,09,29,02,37,9.70
2016,09,29,02,38,9.70
2016,09,29,02,39,9.60
2016,09,29,02,40,9.60
2016,09,29,02,41,9.70
2016,09,29,02,42,9.70
2016,09,29,02,43,9.70
2016,09,29,02,44,9.70
2016,09,29,02,45,9.70
2016,09,29,02,46,9.60
2016,09,29,02,47,9.60
2016,09,29,02,48,9.60
2016,09,29,02,49,9.60
2016,09,29,02,50,9.60
2016,09,29,02,51,9.60
2016,09,29,02,52,9.60
2016,09,29,02,53,9.50
2016,09,29,02,54,9.50
2016,09,29,02,55,9.50
2016,09,29,02,56,9.50
2016,09,29,02,57,9.50
2016,09,29,02,58,9.50
2016,09,29,02,59,9.50
2016,09,29,03,00,9.50
2016,09,29,03,01,9.50
2016,09,29,03,02,9.50
2016,09,29,03,03,9.50
2016,09,29,03,04,9.50
2016,09,29,03,05,9.40
2016,09,29,03,06,9.40
2016,09,29,03,07,9.40
2016,09,29,03,08,9.40
2016,09,29,03,09,9.40
2016,09,29,03,10,9.40
2016,09,29,03,11,9.40
2016,09,29,03,12,9.40
2016,09,29,03,13,9.40
2016,09,29,03,14,9.30
2016,09,29,03,15,9.30
2016,09,29,03,16,9.30
2016,09,29,03,17,9.30
2016,09,29,03,18,9.30
2016,09,29,03,19,9.30
2016,09,29,03,20,9.30
2016,09,29,03,21,9.30
2016,09,29,03,22,9.30
2016,09,29,03,23,9.30
2016,09,29,03,24,9.30
2016,09,29,03,25,9.20
2016,09,29,03,26,9.20
2016,09,29,03,27,9.20
2016,09,29,03,28,9.20
2016,09,29,03,29,9.20
2016,09,29,03,30,9.20
2016,09,29,03,31,9.20
2016,09,29,03,32,9.20
2016,09,29,03,33,9.20
2016,09,29,03,34,9.20
2016,09,29,03,35,9.20
2016,09,29,03,36,9.20
2016,09,29,03,37,9.20
2016,09,29,03,38,9.20
2016,09,29,03,39,9.20
2016,09,29,03,40,9.20
2016,09,29,03,41,9.20
2016,09,29,03,42,9.20
2016,09,29,03,43,9.20
2016,09,29,03,44,9.20
2016,09,29,03,45,9.20
2016,09,29,03,46,9.20
2016,09,29,03,47,9.20
2016,09,29,03,48,9.10
2016,09,29,03,49,9.10
2016,09,29,03,50,9.10
2016,09,29,03,51,9.10
2016,09,29,03,53,9.10
2016,09,29,03,54,9.10
2016,09,29,03,56,9.10
2016,09,29,03,57,9.10
2016,09,29,03,58,9.10
2016,09,29,03,59,9.10
2016,09,29,04,01,9.10
2016,09,29,04,02,9.10
2016,09,29,04,03,9.10
2016,09,29,04,04,9.00
2016,09,29,04,06,9.00
2016,09,29,04,07,9.00
2016,09,29,04,08,9.00
2016,09,29,04,09,9.00
2016,09,29,04,11,9.00
2016,09,29,04,12,9.00
2016,09,29,04,13,9.00
2016,09,29,04,14,9.00
2016,09,29,04,16,9.10
2016,09,29,04,17,9.10
2016,09,29,04,18,9.10
2016,09,29,04,19,9.10
2016,09,29,04,21,9.10
2016,09,29,04,22,9.10
2016,09,29,04,23,9.10
2016,09,29,04,24,9.10
2016,09,29,04,26,9.10
2016,09,29,04,27,9.20
2016,09,29,04,28,9.20
2016,09,29,04,29,9.20
2016,09,29,04,31,9.20
2016,09,29,04,32,9.20
2016,09,29,04,33,9.10
2016,09,29,04,34,9.10
2016,09,29,04,36,9.20
2016,09,29,04,37,9.20
2016,09,29,04,38,9.20
2016,09,29,04,39,9.20
2016,09,29,04,41,9.20
2016,09,29,04,42,9.20
2016,09,29,04,43,9.20
2016,09,29,04,44,9.20
2016,09,29,04,46,9.20
2016,09,29,04,47,9.20
2016,09,29,04,48,9.20
2016,09,29,04,49,9.20
2016,09,29,04,51,9.20
2016,09,29,04,52,9.20
2016,09,29,04,53,9.20
2016,09,29,04,54,9.20
2016,09,29,04,56,9.20
2016,09,29,04,57,9.20
2016,09,29,04,58,9.20
2016,09,29,04,59,9.20
2016,09,29,05,01,9.20
2016,09,29,05,02,9.20
2016,09,29,05,03,9.20
2016,09,29,05,04,9.20
2016,09,29,05,06,9.20
2016,09,29,05,07,9.20
2016,09,29,05,08,9.20
2016,09,29,05,09,9.20
2016,09,29,05,10,9.20
2016,09,29,05,11,9.20
2016,09,29,05,12,9.20
2016,09,29,05,13,9.10
2016,09,29,05,14,9.10
2016,09,29,05,15,9.10
2016,09,29,05,16,9.00
2016,09,29,05,17,9.00
2016,09,29,05,18,9.00
2016,09,29,05,19,9.00
2016,09,29,05,20,9.00
2016,09,29,05,21,9.00
2016,09,29,05,22,9.00
2016,09,29,05,23,9.00
2016,09,29,05,24,9.00
2016,09,29,05,25,8.90
2016,09,29,05,26,8.90
2016,09,29,05,27,8.90
2016,09,29,05,28,8.90
2016,09,29,05,29,8.90
2016,09,29,05,30,8.90
2016,09,29,05,31,8.90
2016,09,29,05,32,8.90
2016,09,29,05,33,8.90
2016,09,29,05,34,8.90
2016,09,29,05,35,8.80
2016,09,29,05,36,8.80
2016,09,29,05,37,8.80
2016,09,29,05,38,8.80
2016,09,29,05,39,8.80
2016,09,29,06,26,9.00
2016,09,29,06,27,9.00
2016,09,29,06,28,9.00
2016,09,29,06,29,9.00
2016,09,29,06,30,9.00
2016,09,29,06,31,9.00
2016,09,29,06,32,9.00
2016,09,29,06,33,9.00
2016,09,29,06,34,9.00
2016,09,29,06,35,9.00
2016,09,29,06,36,9.00
2016,09,29,06,37,8.90
2016,09,29,06,38,8.90
2016,09,29,06,39,8.90
2016,09,29,06,40,8.90
2016,09,29,06,42,8.90
2016,09,29,06,43,8.90
2016,09,29,06,44,8.90
2016,09,29,06,46,8.90
2016,09,29,06,47,8.90
2016,09,29,06,48,8.90
2016,09,29,06,49,8.90
2016,09,29,06,51,8.90
2016,09,29,06,52,8.90
2016,09,29,06,53,8.90
2016,09,29,06,54,8.90
2016,09,29,06,56,8.80
2016,09,29,06,57,8.80
2016,09,29,06,58,8.80
2016,09,29,06,59,8.80
2016,09,29,07,01,8.80
2016,09,29,07,02,8.80
2016,09,29,07,03,8.80
2016,09,29,07,04,8.80
2016,09,29,07,06,8.80
2016,09,29,07,07,8.80
2016,09,29,07,08,8.80
2016,09,29,07,09,8.80
2016,09,29,07,11,8.80
2016,09,29,07,12,8.80
2016,09,29,07,13,8.80
2016,09,29,07,14,8.80
2016,09,29,07,16,8.80
2016,09,29,07,17,8.80
2016,09,29,07,18,8.80
2016,09,29,07,19,8.70
2016,09,29,07,21,8.70
2016,09,29,07,22,8.70
2016,09,29,07,23,8.70
2016,09,29,07,24,8.70
2016,09,29,07,26,8.70
2016,09,29,07,27,8.70
2016,09,29,07,28,8.70
2016,09,29,07,29,8.70
2016,09,29,07,31,8.70
2016,09,29,07,32,8.70
2016,09,29,07,33,8.80
2016,09,29,07,34,8.80
2016,09,29,07,36,8.80
2016,09,29,07,37,8.80
2016,09,29,07,38,8.90
2016,09,29,07,39,8.90
2016,09,29,07,41,8.90
2016,09,29,07,42,9.00
2016,09,29,07,43,9.00
2016,09,29,07,44,9.00
2016,09,29,07,46,9.10
2016,09,29,07,47,9.10
2016,09,29,07,48,9.10
2016,09,29,07,49,9.10
2016,09,29,07,51,9.20
2016,09,29,07,52,9.20
2016,09,29,07,53,9.20
2016,09,29,07,54,9.20
2016,09,29,07,56,9.30
2016,09,29,07,57,9.30
2016,09,29,07,58,9.30
2016,09,29,07,59,9.40
2016,09,29,08,00,9.40
2016,09,29,08,01,9.40
2016,09,29,08,02,9.50
2016,09,29,08,03,9.50
2016,09,29,08,04,9.50
2016,09,29,08,06,9.60
2016,09,29,08,07,9.60
2016,09,29,08,08,9.70
2016,09,29,08,09,9.70
2016,09,29,08,10,9.70
2016,09,29,08,11,9.70
2016,09,29,08,12,9.70
2016,09,29,08,13,9.70
2016,09,29,08,14,9.80
2016,09,29,08,15,9.80
2016,09,29,08,16,9.80
2016,09,29,08,17,9.90
2016,09,29,08,18,9.90
2016,09,29,08,19,9.90
2016,09,29,08,20,9.90
2016,09,29,08,21,9.90
2016,09,29,08,22,9.90
2016,09,29,08,23,9.90
2016,09,29,08,24,10.10
2016,09,29,08,25,10.10
2016,09,29,08,26,10.10
2016,09,29,08,27,10.10
2016,09,29,08,28,10.10
2016,09,29,08,29,10.10
2016,09,29,08,30,10.10
2016,09,29,08,31,10.10
2016,09,29,08,32,10.10
2016,09,29,08,33,10.10
2016,09,29,08,34,10.10
2016,09,29,08,35,10.20
2016,09,29,08,36,10.20
2016,09,29,08,37,10.20
2016,09,29,08,38,10.20
2016,09,29,08,39,10.20
2016,09,29,08,40,10.20
2016,09,29,08,41,10.20
2016,09,29,08,42,10.20
2016,09,29,08,43,10.20
2016,09,29,08,44,10.20
2016,09,29,08,45,10.30
2016,09,29,08,46,10.30
2016,09,29,08,47,10.30
2016,09,29,08,48,10.30
2016,09,29,08,49,10.30
2016,09,29,08,50,10.30
2016,09,29,08,51,10.40
2016,09,29,08,52,10.40
2016,09,29,08,53,10.40
2016,09,29,08,54,10.40
2016,09,29,08,55,10.40
2016,09,29,08,56,10.40
2016,09,29,08,57,10.40
2016,09,29,08,58,10.40
2016,09,29,08,59,10.40
2016,09,29,09,00,10.40
2016,09,29,09,01,10.40
2016,09,29,09,02,10.40
2016,09,29,09,03,10.40
2016,09,29,09,04,10.60
2016,09,29,09,05,10.60
2016,09,29,09,06,10.60
2016,09,29,09,07,10.60
2016,09,29,09,08,10.60
2016,09,29,09,09,10.60
2016,09,29,09,10,10.60
2016,09,29,09,11,10.60
2016,09,29,09,12,10.60
2016,09,29,09,13,10.60
2016,09,29,09,14,10.70
2016,09,29,09,15,10.70
2016,09,29,09,16,10.70
2016,09,29,09,17,10.70
2016,09,29,09,18,10.80
2016,09,29,09,19,10.80
2016,09,29,09,20,10.90
2016,09,29,09,21,10.90
2016,09,29,09,22,10.90
2016,09,29,09,23,10.90
2016,09,29,09,24,10.90
2016,09,29,09,25,10.90
2016,09,29,09,26,10.90
2016,09,29,09,27,11.10
2016,09,29,09,28,11.10
2016,09,29,09,29,11.10
2016,09,29,09,30,11.10
2016,09,29,09,31,11.10
2016,09,29,09,32,11.10
2016,09,29,09,33,11.10
2016,09,29,09,34,11.10
2016,09,29,09,35,11.10
2016,09,29,09,36,11.10
2016,09,29,09,38,11.20
2016,09,29,09,39,11.20
2016,09,29,09,41,11.20
2016,09,29,09,42,11.20
2016,09,29,09,43,11.10
2016,09,29,09,44,11.10
2016,09,29,09,46,11.10
2016,09,29,09,47,11.10
2016,09,29,09,48,11.10
2016,09,29,09,49,11.10
2016,09,29,09,51,11.10
2016,09,29,09,52,11.10
2016,09,29,09,53,11.10
2016,09,29,09,54,11.10
2016,09,29,09,56,11.10
2016,09,29,09,57,11.10
2016,09,29,09,58,11.10
2016,09,29,09,59,11.10
2016,09,29,10,01,11.20
2016,09,29,10,02,11.20
2016,09,29,10,03,11.20
2016,09,29,10,04,11.20
2016,09,29,10,06,11.30
2016,09,29,10,07,11.30
2016,09,29,10,08,11.40
2016,09,29,10,09,11.40
2016,09,29,10,11,11.40
2016,09,29,10,12,11.40
2016,09,29,10,13,11.40
2016,09,29,10,14,11.40
2016,09,29,10,16,11.40
2016,09,29,10,17,11.40
2016,09,29,10,18,11.40
2016,09,29,10,19,11.40
2016,09,29,10,21,11.40
2016,09,29,10,22,11.40
2016,09,29,10,23,11.40
2016,09,29,10,24,11.40
2016,09,29,10,26,11.40
2016,09,29,10,27,11.40
2016,09,29,10,28,11.40
2016,09,29,10,29,11.60
2016,09,29,10,31,11.60
2016,09,29,10,32,11.60
2016,09,29,10,33,11.60
2016,09,29,10,34,11.60
2016,09,29,10,36,11.60
2016,09,29,10,37,11.60
2016,09,29,10,38,11.60
2016,09,29,10,39,11.60
2016,09,29,10,41,11.60
2016,09,29,10,42,11.70
2016,09,29,10,43,11.80
2016,09,29,10,44,11.80
2016,09,29,10,46,11.90
2016,09,29,10,47,12.00
2016,09,29,11,26,12.80
2016,09,29,11,27,12.80
2016,09,29,11,28,12.80
2016,09,29,11,29,12.80
2016,09,29,11,30,12.90
2016,09,29,11,31,12.90
2016,09,29,11,32,12.90
2016,09,29,11,33,12.90
2016,09,29,11,34,12.90
2016,09,29,11,35,12.90
2016,09,29,11,36,12.90
2016,09,29,11,37,12.90
2016,09,29,11,39,12.90
2016,09,29,11,41,12.80
2016,09,29,11,42,12.80
2016,09,29,11,43,12.90
2016,09,29,11,44,12.90
2016,09,29,11,46,12.90
2016,09,29,11,47,12.90
2016,09,29,11,48,12.90
2016,09,29,11,49,12.90
2016,09,29,11,51,12.90
2016,09,29,11,52,13.00
2016,09,29,11,53,13.00
2016,09,29,11,54,13.10
2016,09,29,11,56,13.20
2016,09,29,11,57,13.30
2016,09,29,11,58,13.30
2016,09,29,11,59,13.40
2016,09,29,12,01,13.50
2016,09,29,12,02,13.50
2016,09,29,12,03,13.50
2016,09,29,12,04,13.50
2016,09,29,12,06,13.50
2016,09,29,12,07,13.50
2016,09,29,12,08,13.50
2016,09,29,12,09,13.50
2016,09,29,12,11,13.60
2016,09,29,12,12,13.60
2016,09,29,12,13,13.70
2016,09,29,12,14,13.70
2016,09,29,12,16,13.80
2016,09,29,12,17,13.80
2016,09,29,12,18,13.90
2016,09,29,12,19,13.90
2016,09,29,12,21,14.00
2016,09,29,12,22,14.10
2016,09,29,12,23,14.20
2016,09,29,12,24,14.20
2016,09,29,12,26,14.20
2016,09,29,13,26,14.90
2016,09,29,13,27,14.90
2016,09,29,13,28,14.90
2016,09,29,13,29,15.00
2016,09,29,13,30,15.00
2016,09,29,13,31,15.00
2016,09,29,13,32,15.10
2016,09,29,13,33,15.10
2016,09,29,13,34,15.10
2016,09,29,13,35,15.10
2016,09,29,13,36,15.20
2016,09,29,13,38,15.20
2016,09,29,13,39,15.20
2016,09,29,13,41,15.30
2016,09,29,13,42,15.30
2016,09,29,13,43,15.30
2016,09,29,13,44,15.30
2016,09,29,13,46,15.30
2016,09,29,13,47,15.30
2016,09,29,13,48,15.30
2016,09,29,13,49,15.30
2016,09,29,13,51,15.20
2016,09,29,13,52,15.20
2016,09,29,13,53,15.20
2016,09,29,13,54,15.20
2016,09,29,13,56,15.20
2016,09,29,13,57,15.20
2016,09,29,13,58,15.30
2016,09,29,13,59,15.30
2016,09,29,14,01,15.30
2016,09,29,14,02,15.40
2016,09,29,14,03,15.40
2016,09,29,14,04,15.40
2016,09,29,14,06,15.40
2016,09,29,14,07,15.40
2016,09,29,14,08,15.40
2016,09,29,14,09,15.40
2016,09,29,14,11,15.30
2016,09,29,14,12,15.30
2016,09,29,14,13,15.30
2016,09,29,14,14,15.30
2016,09,29,14,16,15.30
2016,09,29,14,17,15.30
2016,09,29,14,18,15.30
2016,09,29,14,19,15.30
2016,09,29,14,21,15.30
2016,09,29,14,22,15.30
2016,09,29,14,23,15.30
2016,09,29,14,24,15.20
2016,09,29,14,26,15.10
2016,09,29,14,27,15.10
2016,09,29,14,28,15.10
2016,09,29,14,29,15.00
2016,09,29,14,31,14.90
2016,09,29,14,32,14.90
2016,09,29,14,33,14.90
2016,09,29,14,34,14.90
2016,09,29,14,36,14.80
2016,09,29,14,37,14.80
2016,09,29,14,38,14.80
2016,09,29,14,39,14.80
2016,09,29,14,41,14.80
2016,09,29,14,42,14.80
2016,09,29,14,43,14.80
2016,09,29,14,44,14.80
2016,09,29,14,46,14.70
2016,09,29,14,47,14.60
2016,09,29,14,48,14.60
2016,09,29,14,49,14.60
2016,09,29,14,51,14.60
2016,09,29,14,52,14.70
2016,09,29,14,53,14.70
2016,09,29,14,54,14.80
2016,09,29,14,55,14.80
2016,09,29,14,56,14.80
2016,09,29,14,57,14.90
2016,09,29,14,58,15.00
2016,09,29,14,59,15.00
2016,09,29,15,00,15.10
2016,09,29,15,01,15.10
2016,09,29,15,02,15.10
2016,09,29,15,03,15.10
2016,09,29,15,04,15.10
2016,09,29,15,06,15.10
2016,09,29,15,07,15.00
2016,09,29,15,08,15.00
2016,09,29,15,09,15.00
2016,09,29,15,10,15.00
2016,09,29,15,11,15.00
2016,09,29,15,12,14.90
2016,09,29,15,13,14.90
2016,09,29,15,14,14.80
2016,09,29,15,15,14.80
2016,09,29,15,16,14.80
2016,09,29,15,17,14.80
2016,09,29,15,18,14.80
2016,09,29,15,19,14.80
2016,09,29,15,20,14.80
2016,09,29,15,21,14.80
2016,09,29,15,22,14.80
2016,09,29,15,23,14.80
2016,09,29,15,24,14.80
2016,09,29,15,25,14.90
2016,09,29,15,26,14.90
2016,09,29,15,27,14.90
2016,09,29,15,28,14.90
2016,09,29,15,29,14.90
2016,09,29,15,30,14.90
2016,09,29,15,31,14.90
2016,09,29,15,32,14.90
2016,09,29,15,33,14.90
2016,09,29,15,34,14.80
2016,09,29,15,35,14.80
2016,09,29,15,36,14.80
2016,09,29,15,37,14.80
2016,09,29,15,38,14.80
2016,09,29,15,39,14.80
2016,09,29,15,40,14.80
2016,09,29,15,41,14.80
2016,09,29,15,42,14.90
2016,09,29,15,43,14.80
2016,09,29,15,44,14.80
2016,09,29,15,45,14.80
2016,09,29,15,46,14.80
2016,09,29,15,47,14.80
2016,09,29,15,48,14.70
2016,09,29,15,49,14.60
2016,09,29,15,50,14.60
2016,09,29,15,51,14.50
2016,09,29,15,52,14.50
2016,09,29,15,53,14.50
2016,09,29,15,54,14.50
2016,09,29,15,55,14.50
2016,09,29,15,56,14.40
2016,09,29,15,57,14.40
2016,09,29,15,58,14.40
2016,09,29,15,59,14.50
2016,09,29,16,00,14.50
2016,09,29,16,01,14.60
2016,09,29,16,02,14.70
2016,09,29,16,03,14.70
2016,09,29,16,04,14.80
2016,09,29,16,05,14.80
2016,09,29,16,06,14.80
2016,09,29,16,07,14.90
2016,09,29,16,08,15.00
2016,09,29,16,09,15.00
2016,09,29,16,11,15.00
2016,09,29,16,12,15.00
2016,09,29,16,13,15.00
2016,09,29,16,14,15.00
2016,09,29,16,15,15.00
2016,09,29,16,16,15.00
2016,09,29,16,17,15.00
2016,09,29,16,19,15.00
2016,09,29,16,21,15.00
2016,09,29,16,23,14.90
2016,09,29,16,24,14.80
2016,09,29,16,26,14.80
2016,09,29,16,27,14.70
2016,09,29,16,28,14.70
2016,09,29,16,29,14.60
2016,09,29,16,31,14.50
2016,09,29,16,32,14.40
2016,09,29,16,33,14.40
2016,09,29,16,34,14.30
2016,09,29,16,36,14.20
2016,09,29,16,37,14.20
2016,09,29,16,38,14.10
2016,09,29,16,39,14.00
2016,09,29,16,41,13.90
2016,09,29,16,42,13.90
2016,09,29,16,43,13.90
2016,09,29,16,44,13.80
2016,09,29,16,46,13.70
2016,09,29,16,47,13.70
2016,09,29,16,48,13.70
2016,09,29,16,49,13.70
2016,09,29,16,51,13.60
2016,09,29,16,52,13.60
2016,09,29,16,53,13.50
2016,09,29,16,54,13.50
2016,09,29,16,56,13.40
2016,09,29,16,57,13.30
2016,09,29,16,58,13.30
2016,09,29,16,59,13.30
2016,09,29,17,01,13.20
2016,09,29,17,02,13.20
2016,09,29,17,03,13.20
2016,09,29,17,04,13.20
2016,09,29,17,06,13.20
2016,09,29,17,07,13.20
2016,09,29,17,08,13.20
2016,09,29,17,09,13.20
2016,09,29,17,11,13.20
2016,09,29,17,12,13.10
2016,09,29,17,13,13.10
2016,09,29,17,14,13.10
2016,09,29,17,16,13.10
2016,09,29,17,17,13.10
2016,09,29,17,18,13.10
2016,09,29,17,19,13.10
2016,09,29,17,21,13.00
2016,09,29,17,22,13.00
2016,09,29,17,23,13.00
2016,09,29,17,24,13.00
2016,09,29,17,26,12.90
2016,09,29,17,27,12.90
2016,09,29,17,28,12.90
2016,09,29,17,29,12.90
2016,09,29,17,31,12.90
2016,09,29,17,32,12.90
2016,09,29,17,33,12.90
2016,09,29,17,34,12.90
2016,09,29,17,36,12.90
2016,09,29,17,37,12.80
2016,09,29,17,38,12.80
2016,09,29,17,39,12.80
2016,09,29,17,40,12.80
2016,09,29,17,41,12.80
2016,09,29,17,42,12.80
2016,09,29,17,43,12.80
2016,09,29,17,44,12.90
2016,09,29,17,45,12.80
2016,09,29,17,46,12.80
2016,09,29,17,47,12.80
2016,09,29,17,48,12.80
2016,09,29,17,49,12.80
2016,09,29,17,50,12.80
2016,09,29,17,51,12.80
2016,09,29,17,52,12.70
2016,09,29,17,53,12.70
2016,09,29,17,54,12.60
2016,09,29,17,55,12.60
2016,09,29,17,56,12.60
2016,09,29,17,57,12.50
2016,09,29,17,58,12.50
2016,09,29,17,59,12.40
2016,09,29,18,00,12.40
2016,09,29,18,01,12.30
2016,09,29,18,02,12.30
2016,09,29,18,03,12.30
2016,09,29,18,04,12.30
2016,09,29,18,06,12.20
2016,09,29,18,07,12.10
2016,09,29,18,08,12.10
2016,09,29,18,09,12.00
2016,09,29,18,10,12.00
2016,09,29,18,11,12.00
2016,09,29,18,12,11.90
2016,09,29,18,13,11.90
2016,09,29,18,14,11.80
2016,09,29,18,15,11.80
2016,09,29,18,16,11.80
2016,09,29,18,17,11.80
2016,09,29,18,18,11.80
2016,09,29,18,19,11.80
2016,09,29,18,20,11.70
2016,09,29,18,21,11.70
2016,09,29,18,22,11.70
2016,09,29,18,23,11.70
2016,09,29,18,24,11.60
2016,09,29,18,25,11.60
2016,09,29,18,26,11.60
2016,09,29,18,27,11.60
2016,09,29,18,28,11.60
2016,09,29,18,29,11.60
2016,09,29,18,30,11.60
2016,09,29,18,31,11.60
2016,09,29,18,32,11.60
2016,09,29,18,33,11.60
2016,09,29,18,34,11.60
2016,09,29,18,35,11.60
2016,09,29,18,36,11.60
2016,09,29,18,37,11.60
2016,09,29,18,38,11.60
2016,09,29,18,39,11.40
2016,09,29,18,40,11.40
2016,09,29,18,41,11.40
2016,09,29,18,42,11.40
2016,09,29,18,43,11.40
2016,09,29,18,44,11.40
2016,09,29,18,45,11.40
2016,09,29,18,46,11.40
2016,09,29,18,47,11.40
2016,09,29,18,48,11.40
2016,09,29,18,49,11.30
2016,09,29,18,50,11.30
2016,09,29,18,51,11.30
2016,09,29,18,52,11.30
2016,09,29,18,53,11.30
2016,09,29,18,54,11.30
2016,09,29,18,55,11.30
2016,09,29,18,56,11.30
2016,09,29,18,57,11.30
2016,09,29,18,58,11.20
2016,09,29,18,59,11.20
2016,09,29,19,00,11.20
2016,09,29,19,01,11.20
2016,09,29,19,03,11.20
2016,09,29,19,04,11.20
2016,09,29,19,06,11.20
2016,09,29,19,07,11.20
2016,09,29,19,08,11.20
2016,09,29,19,09,11.20
2016,09,29,19,11,11.20
2016,09,29,19,12,11.20
2016,09,29,19,13,11.20
2016,09,29,19,14,11.20
2016,09,29,19,16,11.20
2016,09,29,19,17,11.20
2016,09,29,19,18,11.10
2016,09,29,19,19,11.10
2016,09,29,19,21,11.10
2016,09,29,19,22,11.10
2016,09,29,19,23,11.10
2016,09,29,19,24,11.10
2016,09,29,19,26,10.90
2016,09,29,19,27,10.90
2016,09,29,19,28,10.90
2016,09,29,19,29,10.90
2016,09,29,19,31,10.80
2016,09,29,19,32,10.80
2016,09,29,19,33,10.80
2016,09,29,19,34,10.70
2016,09,29,19,36,10.70
2016,09,29,19,37,10.60
2016,09,29,19,38,10.60
2016,09,29,19,39,10.60
2016,09,29,19,41,10.60
2016,09,29,19,42,10.60
2016,09,29,19,43,10.60
2016,09,29,19,44,10.40
2016,09,29,19,46,10.40
2016,09,29,19,47,10.40
2016,09,29,19,48,10.40
2016,09,29,19,49,10.40
2016,09,29,19,51,10.30
2016,09,29,19,52,10.30
2016,09,29,19,53,10.30
2016,09,29,19,54,10.30
2016,09,29,19,56,10.20
2016,09,29,19,57,10.20
2016,09,29,19,58,10.20
2016,09,29,19,59,10.20
2016,09,29,20,01,10.20
2016,09,29,20,02,10.20
2016,09,29,20,03,10.20
2016,09,29,20,04,10.20
2016,09,29,20,06,10.20
2016,09,29,20,07,10.20
2016,09,29,20,08,10.20
2016,09,29,20,09,10.20
2016,09,29,20,11,10.10
2016,09,29,20,12,10.10
2016,09,29,20,13,10.10
2016,09,29,20,14,10.10
2016,09,29,20,16,10.10
2016,09,29,20,17,10.10
2016,09,29,20,18,10.10
2016,09,29,20,19,10.10
2016,09,29,20,21,10.10
2016,09,29,20,22,10.10
2016,09,29,20,23,10.10
2016,09,29,20,24,10.10
2016,09,29,20,25,10.10
2016,09,29,20,26,10.10
2016,09,29,20,27,9.90
2016,09,29,20,28,9.90
2016,09,29,20,29,9.90
2016,09,29,20,30,9.90
2016,09,29,20,31,9.90
2016,09,29,20,32,9.90
2016,09,29,20,33,9.90
2016,09,29,20,34,9.90
2016,09,29,20,36,9.90
2016,09,29,20,37,9.90
2016,09,29,20,38,9.90
2016,09,29,20,39,9.90
2016,09,29,20,40,9.90
2016,09,29,20,41,9.90
2016,09,29,20,42,9.90
2016,09,29,20,43,9.90
2016,09,29,20,44,9.90
2016,09,29,20,45,9.90
2016,09,29,20,46,9.90
2016,09,29,20,47,9.90
2016,09,29,20,48,9.90
2016,09,29,20,49,9.90
2016,09,29,20,50,9.90
2016,09,29,20,51,9.90
2016,09,29,20,52,9.90
2016,09,29,20,53,9.80
2016,09,29,20,54,9.80
2016,09,29,20,55,9.80
2016,09,29,20,56,9.80
2016,09,29,20,57,9.80
2016,09,29,20,58,9.80
2016,09,29,20,59,9.80
2016,09,29,21,00,9.70
2016,09,29,21,01,9.70
2016,09,29,21,02,9.70
2016,09,29,21,03,9.70
2016,09,29,21,04,9.70
2016,09,29,21,05,9.70
2016,09,29,21,06,9.70
2016,09,29,21,07,9.70
2016,09,29,21,08,9.70
2016,09,29,21,09,9.70
2016,09,29,21,10,9.70
2016,09,29,21,11,9.80
2016,09,29,21,12,9.80
2016,09,29,21,13,9.80
2016,09,29,21,14,9.90
2016,09,29,21,15,9.90
2016,09,29,21,16,9.90
2016,09,29,21,17,9.90
2016,09,29,21,18,9.90
2016,09,29,21,19,9.90
2016,09,29,21,20,9.90
2016,09,29,21,21,9.90
2016,09,29,21,22,9.90
2016,09,29,21,23,9.90
2016,09,29,21,24,9.90
2016,09,29,21,25,9.90
2016,09,29,21,26,9.90
2016,09,29,21,27,9.90
2016,09,29,21,28,9.90
2016,09,29,21,29,9.90
2016,09,29,21,30,10.10
2016,09,29,21,31,10.10
2016,09,29,21,32,10.10
2016,09,29,21,33,10.10
2016,09,29,21,34,10.10
2016,09,29,21,35,10.10
2016,09,29,21,36,10.10
2016,09,29,21,37,10.10
2016,09,29,21,38,10.10
2016,09,29,21,39,10.10
2016,09,29,21,40,10.10
2016,09,29,21,41,10.10
2016,09,29,21,42,10.10
2016,09,29,21,43,10.10
2016,09,29,21,44,10.10
2016,09,29,21,45,10.10
2016,09,29,21,46,10.10
2016,09,29,21,48,10.10
2016,09,29,21,49,10.10
2016,09,29,21,50,10.10
2016,09,29,21,51,10.10
2016,09,29,21,52,10.10
2016,09,29,21,53,10.10
2016,09,29,21,54,10.10
2016,09,29,21,55,10.10
2016,09,29,21,57,10.10
2016,09,29,21,59,10.10
2016,09,29,22,01,9.90
2016,09,29,22,02,9.90
2016,09,29,22,03,9.90
2016,09,29,22,04,9.90
2016,09,29,22,06,9.90
2016,09,29,22,07,9.80
2016,09,29,22,08,9.80
2016,09,29,22,09,9.80
2016,09,29,22,11,9.70
2016,09,29,22,12,9.70
2016,09,29,22,13,9.70
2016,09,29,22,14,9.80
2016,09,29,22,16,9.90
2016,09,29,22,17,10.10
2016,09,29,22,18,10.10
2016,09,29,22,19,10.20
2016,09,29,22,21,10.30
2016,09,29,22,22,10.30
2016,09,29,22,23,10.30